User: anonymous   Login
Location: Deep South Regional Star Gaze
(30.9929°N, 90.9586°W)
Time: 13:13:10
(UTC-05:00)
Language:

H-2A R/B - Orbit

View from above orbital plane
View from above orbital plane
View from above satellite
View from above satellite

Ground track
Ground track

The orbit data is extracted from the following two-line orbital elements,

1 26899U 01038B   14302.01192164  .00002071  00000-0  71360-3 0   665
2 26899 028.0400 093.7532 7150555 274.9497 345.1563 02.43999344112793
Epoch (UTC): 29 October 2014 00:17:10
Eccentricity: 0.7150555
inclination: 28.0400°
perigee height: 263 km
apogee height: 33593 km
right ascension of ascending node: 93.7532°
argument of perigee: 274.9497°
revolutions per day: 2.43999344
mean anomaly at epoch: 345.1563°
orbit number at epoch: 11279

The dashed part of the orbit path shows where the satellite is in the earth's shadow,  

DLR